Home > Weather > Heide > Past weeks

Flag for Germany Weather for the Past 2 Weeks in Heide, Schleswig-Holstein, Germany

Now
54 °F

Partly sunny.


Feels Like: 49 °F
Forecast: 41 / 56 °F
Wind: 17 mph from West

Location: Hohn

Current Time: May 3, 2016 at 3:04:24 PM

Latest Report: May 3, 2016 at 2:20 PM


Visibility: N/A

Pressure: 30.12 "Hg

Humidity: 67%

Dew Point: 43 °F

Location of HeideLocation

Historic Weather in Heide — Graph

°F

Heide Temperature Yesterday

Maximum temperature yesterday: 64 °F (at 2:20 PM)
Minimum temperature yesterday: 32 °F (at 4:20 AM)
Average temperature yesterday: 51 °F

High & Low Weather Summary for the Past Weeks

 TemperatureHumidityPressure
High64 °F (May 2, 2:20 PM)100% (Apr 21, 4:20 AM)30.42 "Hg (Apr 21, 4:20 AM)
Low30 °F (Apr 23, 4:20 AM)28% (Apr 23, 12:20 PM)29.36 "Hg (Apr 26, 4:20 AM)
Average43 °F78%29.95 "Hg
* Reported Apr 18 1:20 PM — May 3 1:20 PM, Heide, Weather by CustomWeather, © 2016

Note: Actual official high and low records may vary slightly from our data, if they occured in-between our weather recording intervals... More about our weather records

Advertising

Heide Weather History for the Previous 24 Hours

Scroll right to see more
 ConditionsComfort  
Time TempWeatherWind HumidityBarometerVisibility
1:20 PM
Tue, May 3
54 °FBroken clouds.16 mph67%30.09 "HgN/A
12:20 PM52 °FBroken clouds.14 mph82%30.09 "HgN/A
11:20 AM48 °FBroken clouds.9 mph94%30.07 "HgN/A
10:20 AM48 °FLight rain. Broken clouds.13 mph87%30.04 "Hg5 mi
9:20 AM48 °FLight rain. Broken clouds.15 mph94%30.01 "Hg4 mi
8:57 AM52 °FLight rain. Partly sunny.9 mph88%30.01 "Hg4 mi
8:20 AM50 °FDrizzle. Fog.6 mph88%29.98 "Hg3 mi
7:20 AM48 °FLight rain. Fog.2 mph94%29.98 "Hg3 mi
6:20 AM46 °FLight rain. Fog.3 mph87%29.98 "Hg3 mi
5:20 AM45 °FPassing clouds.1 mph87%29.98 "HgN/A
4:20 AM45 °FQuite cool.5 mph87%29.98 "Hg4 mi
3:20 AM46 °FCool.1 mph82%30.01 "Hg4 mi
2:20 AM50 °FCool.2 mph76%30.01 "Hg4 mi
1:20 AM50 °FCool.3 mph71%30.01 "Hg4 mi
12:20 AM50 °FCool.3 mph71%30.04 "Hg5 mi
11:20 PM
Mon, May 2
54 °FCool.5 mph67%30.04 "Hg5 mi
10:20 PM55 °FCool.7 mph63%30.07 "Hg5 mi
9:20 PM55 °FCool.5 mph67%30.07 "Hg5 mi
8:20 PM63 °FMild.3 mph49%30.09 "Hg5 mi
7:20 PM64 °FMild.7 mph43%30.09 "Hg6 mi
6:46 PM64 °FPartly sunny.8 mph43%30.09 "HgN/A
6:20 PM64 °FPartly sunny.9 mph43%30.12 "HgN/A
5:20 PM64 °FScattered clouds.10 mph43%30.12 "HgN/A
4:20 PM64 °FPassing clouds.10 mph46%30.15 "HgN/A
3:20 PM64 °FPassing clouds.10 mph46%30.18 "HgN/A
Weather by CustomWeather, © 2016

See weather overviewHow to use our weather pages